Location: Pine Creek
(45.5072°N, 110.5649°W)
Time: 13:37:45
(UTC+00:00)

Envisat - Pass Details

Date: 21 January 2022
Orbit: 764 x 765 km, 98.2° (Epoch: 17 May)

Event Time Altitude Azimuth Distance (km) Brightness Sun altitude
Rises 14:04:37 0° 357° (N) 3,241 6.0 -8.8°
Reaches altitude 10° 14:08:05 10° 332° (NNW) 2,310 5.0 -8.2°
Maximum altitude 14:10:30 14° 303° (WNW) 2,066 4.6 -7.8°
Drops below altitude 10° 14:12:55 10° 274° (W) 2,304 4.9 -7.4°
Sets 14:16:22 0° 249° (WSW) 3,225 5.8 -6.9°
